Starlink 35156

operational
NORAD ID: 65607 Int'l Des: 2025-207 Owner: SPXS Country: US Constellation: starlink
NOTLE

关于 Starlink 35156

正在加载描述...

实时位置

正在加载3D地球...

即将过境

高度历史

Altitude vs Time

uPlot chart will show altitude changes over time

两行轨道根数

1 65607U 25207R 25354.58336806 -.01617175 00000-0 -70628-1 0 9992
2 65607 97.6030 60.6481 0001840 81.2185 354.0453 15.25355777 5684
Epoch: Dec 20, 2025 • Age: 9 hours

当前状态

高度 521.7 km
速度 7.60 km/s
星下点 -74.07°S, 17.11°E
发射日期 Sep 13, 2025
运行时间 0.2 years
类型 internet

技术详情

分类 Payload
质量 575.00 kg
干质量 530.00 kg
总质量 575.00 kg
长度 0.30 m
直径 4.10 m
跨度 29.00 m
形状 Box + pan
制造商 SPXS
平台类型 Starlink V2MO
阶段状态 In Orbit
所有者/国家 SPXS/US

大型星座

Loading constellations...